Time,TemperatureF,DewpointF,PressureIn,WindDirection,WindDirectionDegrees,WindSpeedMPH,WindSpeedGustMPH,Humidity,HourlyPrecipIn,Conditions,Clouds,dailyrainin,SoftwareType,DateUTC
2013-03-23 00:05:00,43.9,38.1,30.02,SE,139,0.0,0.0,80,0.00,,,0.00,Wunderground v.1.15,2013-03-23 04:05:00,
2013-03-23 00:10:00,43.9,38.1,30.02,SE,139,0.0,0.0,80,0.00,,,0.00,Wunderground v.1.15,2013-03-23 04:10:00,
2013-03-23 00:15:00,43.8,38.0,30.02,SE,139,0.0,0.0,80,0.00,,,0.00,Wunderground v.1.15,2013-03-23 04:15:00,
2013-03-23 00:20:00,43.7,38.3,30.02,SE,139,0.0,0.0,81,0.00,,,0.00,Wunderground v.1.15,2013-03-23 04:20:00,
2013-03-23 00:25:00,43.6,38.2,30.01,SE,139,0.0,0.0,81,0.00,,,0.00,Wunderground v.1.15,2013-03-23 04:25:00,
2013-03-23 00:30:00,43.6,38.2,30.01,SE,139,0.0,0.0,81,0.00,,,0.00,Wunderground v.1.15,2013-03-23 04:30:00,
2013-03-23 00:35:00,43.6,37.8,30.01,SE,139,0.0,0.0,80,0.00,,,0.00,Wunderground v.1.15,2013-03-23 04:35:00,
2013-03-23 00:40:00,43.6,37.8,30.01,SE,139,0.0,0.0,80,0.00,,,0.00,Wunderground v.1.15,2013-03-23 04:40:00,
2013-03-23 00:45:00,43.6,37.8,30.01,SE,139,0.0,0.0,80,0.00,,,0.00,Wunderground v.1.15,2013-03-23 04:45:00,
2013-03-23 00:50:00,43.6,37.8,30.01,SE,139,0.0,0.0,80,0.00,,,0.00,Wunderground v.1.15,2013-03-23 04:50:00,
2013-03-23 00:55:00,43.7,37.9,30.01,SE,139,0.0,0.0,80,0.00,,,0.00,Wunderground v.1.15,2013-03-23 04:55:00,
2013-03-23 01:01:00,43.8,38.0,30.01,SE,139,0.0,0.0,80,0.00,,,0.00,Wunderground v.1.15,2013-03-23 05:01:00,
2013-03-23 01:06:00,43.8,37.7,30.01,SE,139,0.0,0.0,79,0.00,,,0.00,Wunderground v.1.15,2013-03-23 05:06:00,
2013-03-23 01:11:00,43.9,37.8,30.00,SE,139,0.0,0.0,79,0.00,,,0.00,Wunderground v.1.15,2013-03-23 05:11:00,
2013-03-23 01:16:00,43.9,38.1,30.00,SE,139,0.0,0.0,80,0.00,,,0.00,Wunderground v.1.15,2013-03-23 05:16:00,
2013-03-23 01:21:00,44.0,38.5,30.00,SE,139,0.0,0.0,81,0.00,,,0.00,Wunderground v.1.15,2013-03-23 05:21:00,
2013-03-23 01:27:00,44.0,38.2,30.01,SE,139,0.0,0.0,80,0.00,,,0.00,Wunderground v.1.15,2013-03-23 05:27:00,
2013-03-23 01:33:00,43.9,38.1,30.01,SE,139,0.0,0.0,80,0.00,,,0.00,Wunderground v.1.15,2013-03-23 05:33:00,
2013-03-23 01:38:00,43.8,38.0,30.01,SE,139,0.0,0.0,80,0.00,,,0.00,Wunderground v.1.15,2013-03-23 05:38:00,
2013-03-23 01:43:00,43.8,38.0,30.00,SE,139,0.0,0.0,80,0.00,,,0.00,Wunderground v.1.15,2013-03-23 05:43:00,
2013-03-23 01:49:00,43.8,38.3,30.00,SE,139,0.0,0.0,81,0.00,,,0.00,Wunderground v.1.15,2013-03-23 05:49:00,
2013-03-23 01:54:00,43.9,38.4,30.00,SE,139,0.0,0.0,81,0.00,,,0.00,Wunderground v.1.15,2013-03-23 05:54:00,
2013-03-23 02:00:00,44.0,38.5,30.00,SE,139,0.0,0.0,81,0.00,,,0.00,Wunderground v.1.15,2013-03-23 06:00:00,
2013-03-23 02:06:00,44.1,39.0,30.00,SE,139,0.0,0.0,82,0.00,,,0.00,Wunderground v.1.15,2013-03-23 06:06:00,
2013-03-23 02:11:00,44.2,39.4,29.99,SE,139,0.0,0.0,83,0.00,,,0.00,Wunderground v.1.15,2013-03-23 06:11:00,
2013-03-23 02:16:00,44.1,39.6,30.00,SE,139,0.0,0.0,84,0.00,,,0.00,Wunderground v.1.15,2013-03-23 06:16:00,
2013-03-23 02:22:00,44.1,39.3,30.00,SE,139,0.0,0.0,83,0.00,,,0.00,Wunderground v.1.15,2013-03-23 06:22:00,
2013-03-23 02:28:00,44.3,39.5,30.00,SE,139,0.0,0.0,83,0.00,,,0.00,Wunderground v.1.15,2013-03-23 06:28:00,
2013-03-23 02:33:00,44.4,38.9,30.00,SE,139,0.0,0.0,81,0.00,,,0.00,Wunderground v.1.15,2013-03-23 06:33:00,
2013-03-23 02:39:00,44.5,39.0,30.00,SE,139,0.0,0.0,81,0.00,,,0.00,Wunderground v.1.15,2013-03-23 06:39:00,
2013-03-23 02:44:00,44.6,38.5,30.00,SE,139,0.0,0.0,79,0.00,,,0.00,Wunderground v.1.15,2013-03-23 06:44:00,
2013-03-23 02:49:00,44.7,38.9,29.99,SE,139,0.0,0.0,80,0.00,,,0.00,Wunderground v.1.15,2013-03-23 06:49:00,
2013-03-23 02:54:00,44.8,39.3,29.99,SE,139,0.0,0.0,81,0.00,,,0.00,Wunderground v.1.15,2013-03-23 06:54:00,
2013-03-23 03:00:00,44.9,39.4,29.98,SE,139,0.0,0.0,81,0.00,,,0.00,Wunderground v.1.15,2013-03-23 07:00:00,
2013-03-23 03:06:00,44.9,38.1,29.98,SE,139,0.0,0.0,77,0.00,,,0.00,Wunderground v.1.15,2013-03-23 07:06:00,
2013-03-23 03:11:00,45.1,37.0,29.98,SE,139,0.0,0.0,73,0.00,,,0.00,Wunderground v.1.15,2013-03-23 07:11:00,
2013-03-23 03:16:00,45.4,36.5,29.98,SE,139,0.0,0.0,71,0.00,,,0.00,Wunderground v.1.15,2013-03-23 07:16:00,
2013-03-23 03:22:00,45.6,36.0,29.98,SE,139,0.0,0.0,69,0.00,,,0.00,Wunderground v.1.15,2013-03-23 07:22:00,
2013-03-23 03:27:00,45.9,36.7,29.98,SE,139,0.0,0.0,70,0.00,,,0.00,Wunderground v.1.15,2013-03-23 07:27:00,
2013-03-23 03:32:00,46.0,37.1,29.98,SE,139,0.0,0.0,71,0.00,,,0.00,Wunderground v.1.15,2013-03-23 07:32:00,
2013-03-23 03:37:00,46.0,39.2,29.98,SE,139,0.0,0.0,77,0.00,,,0.00,Wunderground v.1.15,2013-03-23 07:37:00,
2013-03-23 03:42:00,45.7,39.2,29.98,SE,139,0.0,0.0,78,0.00,,,0.00,Wunderground v.1.15,2013-03-23 07:42:00,
2013-03-23 03:47:00,45.5,39.4,29.98,SE,139,0.0,0.0,79,0.00,,,0.00,Wunderground v.1.15,2013-03-23 07:47:00,
2013-03-23 03:52:00,45.4,39.6,29.97,SE,139,0.0,0.0,80,0.00,,,0.00,Wunderground v.1.15,2013-03-23 07:52:00,
2013-03-23 03:57:00,45.2,39.4,29.97,SE,139,0.0,0.0,80,0.00,,,0.00,Wunderground v.1.15,2013-03-23 07:57:00,
2013-03-23 04:02:00,45.2,39.7,29.97,SE,139,0.0,0.0,81,0.00,,,0.00,Wunderground v.1.15,2013-03-23 08:02:00,
2013-03-23 04:07:00,45.2,39.7,29.96,SE,139,0.0,0.0,81,0.00,,,0.00,Wunderground v.1.15,2013-03-23 08:07:00,
2013-03-23 04:12:00,45.3,39.2,29.97,SE,139,0.0,0.0,79,0.00,,,0.00,Wunderground v.1.15,2013-03-23 08:12:00,
2013-03-23 04:17:00,45.4,38.9,29.97,SE,139,0.0,0.0,78,0.00,,,0.00,Wunderground v.1.15,2013-03-23 08:17:00,
2013-03-23 04:22:00,45.5,38.7,29.97,SE,139,0.0,0.0,77,0.00,,,0.00,Wunderground v.1.15,2013-03-23 08:22:00,
2013-03-23 04:27:00,45.6,38.5,29.96,SE,139,0.0,0.0,76,0.00,,,0.00,Wunderground v.1.15,2013-03-23 08:27:00,
2013-03-23 04:32:00,45.7,38.2,29.96,SE,139,0.0,0.0,75,0.00,,,0.00,Wunderground v.1.15,2013-03-23 08:32:00,
2013-03-23 04:37:00,45.8,38.3,29.96,SE,139,0.0,0.0,75,0.00,,,0.00,Wunderground v.1.15,2013-03-23 08:37:00,
2013-03-23 04:42:00,45.8,38.7,29.96,SE,139,0.0,0.0,76,0.00,,,0.00,Wunderground v.1.15,2013-03-23 08:42:00,
2013-03-23 04:47:00,45.8,39.0,29.95,SE,139,0.0,0.0,77,0.00,,,0.00,Wunderground v.1.15,2013-03-23 08:47:00,
2013-03-23 04:52:00,45.7,38.6,29.95,SE,139,0.0,0.0,76,0.00,,,0.00,Wunderground v.1.15,2013-03-23 08:52:00,
2013-03-23 04:57:00,45.7,38.9,29.95,SE,139,0.0,0.0,77,0.00,,,0.00,Wunderground v.1.15,2013-03-23 08:57:00,
2013-03-23 05:02:00,45.7,39.6,29.95,SE,139,0.0,0.0,79,0.00,,,0.00,Wunderground v.1.15,2013-03-23 09:02:00,
2013-03-23 05:07:00,45.6,39.5,29.95,SE,139,0.0,0.0,79,0.00,,,0.00,Wunderground v.1.15,2013-03-23 09:07:00,
2013-03-23 05:12:00,45.5,39.7,29.95,SE,139,0.0,0.0,80,0.00,,,0.00,Wunderground v.1.15,2013-03-23 09:12:00,
2013-03-23 05:17:00,45.4,39.9,29.95,SE,139,0.0,0.0,81,0.00,,,0.00,Wunderground v.1.15,2013-03-23 09:17:00,
2013-03-23 05:22:00,45.3,40.1,29.95,SE,139,0.0,0.0,82,0.00,,,0.00,Wunderground v.1.15,2013-03-23 09:22:00,
2013-03-23 05:27:00,45.3,40.1,29.94,SE,139,0.0,0.0,82,0.00,,,0.00,Wunderground v.1.15,2013-03-23 09:27:00,
2013-03-23 05:32:00,45.3,39.5,29.95,SE,139,0.0,0.0,80,0.00,,,0.00,Wunderground v.1.15,2013-03-23 09:32:00,
2013-03-23 05:37:00,45.4,40.5,29.95,SE,139,0.0,0.0,83,0.00,,,0.00,Wunderground v.1.15,2013-03-23 09:37:00,
2013-03-23 05:42:00,45.5,40.3,29.95,SE,139,0.0,0.0,82,0.00,,,0.00,Wunderground v.1.15,2013-03-23 09:42:00,
2013-03-23 05:47:00,45.4,40.2,29.95,SE,139,0.0,0.0,82,0.00,,,0.00,Wunderground v.1.15,2013-03-23 09:47:00,
2013-03-23 05:52:00,45.4,40.5,29.95,SE,139,0.0,0.0,83,0.00,,,0.00,Wunderground v.1.15,2013-03-23 09:52:00,
2013-03-23 05:57:00,45.3,40.7,29.95,SE,139,0.0,0.0,84,0.00,,,0.00,Wunderground v.1.15,2013-03-23 09:57:00,
2013-03-23 06:02:00,45.2,40.7,29.94,SE,139,0.0,0.0,84,0.00,,,0.00,Wunderground v.1.15,2013-03-23 10:02:00,
2013-03-23 06:07:00,45.1,40.6,29.95,SE,139,0.0,0.0,84,0.00,,,0.00,Wunderground v.1.15,2013-03-23 10:07:00,
2013-03-23 06:12:00,45.1,41.2,29.94,SE,139,0.0,0.0,86,0.00,,,0.00,Wunderground v.1.15,2013-03-23 10:12:00,
2013-03-23 06:17:00,44.9,41.0,29.95,SE,139,0.0,0.0,86,0.00,,,0.00,Wunderground v.1.15,2013-03-23 10:17:00,
2013-03-23 06:23:00,44.8,41.2,29.96,SE,139,0.0,0.0,87,0.00,,,0.00,Wunderground v.1.15,2013-03-23 10:23:00,
2013-03-23 06:28:00,44.6,41.0,29.96,NE,52,4.0,5.0,87,0.00,,,0.00,Wunderground v.1.15,2013-03-23 10:28:00,
2013-03-23 06:33:00,44.4,40.8,29.96,NE,51,0.0,2.0,87,0.00,,,0.00,Wunderground v.1.15,2013-03-23 10:33:00,
2013-03-23 06:38:00,44.2,40.6,29.97,NE,51,4.0,4.0,87,0.00,,,0.00,Wunderground v.1.15,2013-03-23 10:38:00,
2013-03-23 06:43:00,44.2,40.9,29.98,NE,42,3.0,4.0,88,0.00,,,0.00,Wunderground v.1.15,2013-03-23 10:43:00,
2013-03-23 06:48:00,44.0,40.7,29.97,ENE,57,3.0,4.0,88,0.00,,,0.00,Wunderground v.1.15,2013-03-23 10:48:00,
2013-03-23 06:53:00,43.9,40.9,29.96,ENE,57,2.0,3.0,89,0.00,,,0.00,Wunderground v.1.15,2013-03-23 10:53:00,
2013-03-23 06:58:00,43.8,40.8,29.95,ENE,57,2.0,3.0,89,0.00,,,0.00,Wunderground v.1.15,2013-03-23 10:58:00,
2013-03-23 07:03:00,43.8,40.8,29.95,ENE,57,2.0,3.0,89,0.00,,,0.00,Wunderground v.1.15,2013-03-23 11:03:00,
2013-03-23 07:08:00,43.8,41.1,29.95,ENE,57,0.0,3.0,90,0.00,,,0.00,Wunderground v.1.15,2013-03-23 11:08:00,
2013-03-23 07:13:00,43.9,41.2,29.95,ENE,57,0.0,0.0,90,0.00,,,0.00,Wunderground v.1.15,2013-03-23 11:13:00,
2013-03-23 07:18:00,44.0,41.3,29.95,ENE,57,0.0,0.0,90,0.00,,,0.00,Wunderground v.1.15,2013-03-23 11:18:00,
2013-03-23 07:23:00,44.0,41.0,29.96,ENE,57,0.0,0.0,89,0.00,,,0.00,Wunderground v.1.15,2013-03-23 11:23:00,
2013-03-23 07:28:00,44.1,41.1,29.96,ENE,57,0.0,0.0,89,0.00,,,0.00,Wunderground v.1.15,2013-03-23 11:28:00,
2013-03-23 07:33:00,44.2,41.5,29.97,NE,55,0.0,0.0,90,0.00,,,0.00,Wunderground v.1.15,2013-03-23 11:33:00,
2013-03-23 07:38:00,44.2,41.5,29.97,NE,47,3.0,5.0,90,0.00,,,0.00,Wunderground v.1.15,2013-03-23 11:38:00,
2013-03-23 07:43:00,44.1,41.6,29.98,NE,48,0.0,2.0,91,0.00,,,0.00,Wunderground v.1.15,2013-03-23 11:43:00,
2013-03-23 07:48:00,44.0,41.5,29.97,NE,48,0.0,3.0,91,0.00,,,0.00,Wunderground v.1.15,2013-03-23 11:48:00,
2013-03-23 07:54:00,43.9,41.4,29.97,NE,48,0.0,0.0,91,0.00,,,0.00,Wunderground v.1.15,2013-03-23 11:54:00,
2013-03-23 07:59:00,43.8,41.3,29.97,NE,48,0.0,0.0,91,0.00,,,0.00,Wunderground v.1.15,2013-03-23 11:59:00,
2013-03-23 08:04:00,43.8,41.1,29.97,NE,48,0.0,0.0,90,0.00,,,0.00,Wunderground v.1.15,2013-03-23 12:04:00,
2013-03-23 08:09:00,43.7,41.0,29.98,NE,48,0.0,0.0,90,0.00,,,0.00,Wunderground v.1.15,2013-03-23 12:09:00,
2013-03-23 08:14:00,43.7,41.0,29.99,NE,48,0.0,0.0,90,0.00,,,0.00,Wunderground v.1.15,2013-03-23 12:14:00,
2013-03-23 08:19:00,43.7,41.0,29.99,NE,48,0.0,0.0,90,0.00,,,0.00,Wunderground v.1.15,2013-03-23 12:19:00,
2013-03-23 08:24:00,43.6,41.1,29.99,NE,48,0.0,0.0,91,0.00,,,0.00,Wunderground v.1.15,2013-03-23 12:24:00,
2013-03-23 08:29:00,43.6,41.1,29.99,NE,48,0.0,0.0,91,0.00,,,0.01,Wunderground v.1.15,2013-03-23 12:29:00,
2013-03-23 08:34:00,43.6,41.1,29.99,NE,48,0.0,0.0,91,0.00,,,0.01,Wunderground v.1.15,2013-03-23 12:34:00,
2013-03-23 08:39:00,43.4,41.2,29.99,NE,51,5.0,11.0,92,0.07,,,0.02,Wunderground v.1.15,2013-03-23 12:39:00,
2013-03-23 08:44:00,43.1,40.9,30.00,NE,44,0.0,4.0,92,0.09,,,0.03,Wunderground v.1.15,2013-03-23 12:44:00,
2013-03-23 08:49:00,42.9,41.0,30.01,NE,49,2.0,6.0,93,0.11,,,0.04,Wunderground v.1.15,2013-03-23 12:49:00,
2013-03-23 08:54:00,42.7,40.8,30.01,NE,42,6.0,6.0,93,0.07,,,0.04,Wunderground v.1.15,2013-03-23 12:54:00,
2013-03-23 08:59:00,42.6,41.0,30.01,ENE,59,6.0,8.0,94,0.07,,,0.05,Wunderground v.1.15,2013-03-23 12:59:00,
2013-03-23 09:04:00,42.6,41.0,30.02,NE,47,0.0,5.0,94,0.06,,,0.05,Wunderground v.1.15,2013-03-23 13:04:00,
2013-03-23 09:09:00,42.6,41.0,30.03,NE,47,0.0,5.0,94,0.05,,,0.06,Wunderground v.1.15,2013-03-23 13:09:00,
2013-03-23 09:14:00,42.7,41.1,30.03,NE,47,0.0,0.0,94,0.16,,,0.08,Wunderground v.1.15,2013-03-23 13:14:00,
2013-03-23 09:19:00,42.7,41.1,30.01,NE,47,0.0,0.0,94,0.21,,,0.09,Wunderground v.1.15,2013-03-23 13:19:00,
2013-03-23 09:24:00,42.7,41.4,30.01,NE,47,0.0,0.0,95,0.20,,,0.11,Wunderground v.1.15,2013-03-23 13:24:00,
2013-03-23 09:29:00,42.7,41.4,30.01,SE,132,1.0,5.0,95,0.14,,,0.12,Wunderground v.1.15,2013-03-23 13:29:00,
2013-03-23 09:34:00,42.8,41.5,30.00,South,182,5.0,7.0,95,0.17,,,0.13,Wunderground v.1.15,2013-03-23 13:34:00,
2013-03-23 09:39:00,42.8,41.5,30.00,South,184,2.0,7.0,95,0.17,,,0.15,Wunderground v.1.15,2013-03-23 13:39:00,
2013-03-23 09:44:00,42.8,41.5,30.00,South,184,0.0,3.0,95,0.13,,,0.16,Wunderground v.1.15,2013-03-23 13:44:00,
2013-03-23 09:49:00,42.9,41.6,30.00,South,184,0.0,3.0,95,0.16,,,0.17,Wunderground v.1.15,2013-03-23 13:49:00,
2013-03-23 09:54:00,42.9,41.6,29.99,NNW,338,0.0,0.0,95,0.10,,,0.18,Wunderground v.1.15,2013-03-23 13:54:00,
2013-03-23 09:59:00,43.0,41.7,30.00,NNW,338,0.0,0.0,95,0.14,,,0.19,Wunderground v.1.15,2013-03-23 13:59:00,
2013-03-23 10:04:00,43.0,41.7,30.00,NNW,338,0.0,0.0,95,0.12,,,0.20,Wunderground v.1.15,2013-03-23 14:04:00,
2013-03-23 10:09:00,43.1,41.8,30.00,NNW,338,0.0,0.0,95,0.15,,,0.21,Wunderground v.1.15,2013-03-23 14:09:00,
2013-03-23 10:14:00,43.3,42.2,30.00,NNW,338,0.0,0.0,96,0.12,,,0.22,Wunderground v.1.15,2013-03-23 14:14:00,
2013-03-23 10:19:00,43.3,42.0,30.00,NNW,338,0.0,0.0,95,0.15,,,0.23,Wunderground v.1.15,2013-03-23 14:19:00,
2013-03-23 10:24:00,43.3,42.0,30.00,NNW,338,0.0,0.0,95,0.11,,,0.24,Wunderground v.1.15,2013-03-23 14:24:00,
2013-03-23 10:29:00,43.3,42.0,29.99,NNW,338,0.0,0.0,95,0.14,,,0.25,Wunderground v.1.15,2013-03-23 14:29:00,
2013-03-23 10:34:00,43.4,42.3,29.99,NNW,338,0.0,0.0,96,0.11,,,0.26,Wunderground v.1.15,2013-03-23 14:34:00,
2013-03-23 10:39:00,43.5,42.4,29.99,NNW,338,0.0,0.0,96,0.13,,,0.27,Wunderground v.1.15,2013-03-23 14:39:00,
2013-03-23 10:44:00,43.6,42.5,29.99,NNW,338,0.0,0.0,96,0.10,,,0.28,Wunderground v.1.15,2013-03-23 14:44:00,
2013-03-23 10:49:00,43.7,42.6,30.00,West,281,0.0,0.0,96,0.13,,,0.29,Wunderground v.1.15,2013-03-23 14:49:00,
2013-03-23 10:54:00,43.8,42.7,30.01,West,281,0.0,0.0,96,0.09,,,0.30,Wunderground v.1.15,2013-03-23 14:54:00,
2013-03-23 11:00:00,43.7,42.6,30.01,West,281,0.0,0.0,96,0.12,,,0.31,Wunderground v.1.15,2013-03-23 15:00:00,
2013-03-23 11:05:00,43.8,42.7,30.01,West,281,0.0,0.0,96,0.09,,,0.31,Wunderground v.1.15,2013-03-23 15:05:00,
2013-03-23 11:10:00,43.9,42.8,30.02,West,281,0.0,0.0,96,0.13,,,0.33,Wunderground v.1.15,2013-03-23 15:10:00,
2013-03-23 11:15:00,44.0,42.9,30.02,West,281,0.0,0.0,96,0.11,,,0.33,Wunderground v.1.15,2013-03-23 15:15:00,
2013-03-23 11:20:00,43.9,42.8,30.01,West,281,0.0,0.0,96,0.09,,,0.34,Wunderground v.1.15,2013-03-23 15:20:00,
2013-03-23 11:25:00,44.0,42.9,30.02,West,281,0.0,0.0,96,0.12,,,0.35,Wunderground v.1.15,2013-03-23 15:25:00,
2013-03-23 11:30:00,44.0,42.9,30.03,West,281,0.0,0.0,96,0.09,,,0.36,Wunderground v.1.15,2013-03-23 15:30:00,
2013-03-23 11:35:00,44.0,42.9,30.02,West,281,0.0,0.0,96,0.12,,,0.37,Wunderground v.1.15,2013-03-23 15:35:00,
2013-03-23 11:40:00,44.0,42.9,30.02,West,281,0.0,0.0,96,0.10,,,0.38,Wunderground v.1.15,2013-03-23 15:40:00,
2013-03-23 11:45:00,44.1,43.0,30.00,West,281,0.0,0.0,96,0.12,,,0.39,Wunderground v.1.15,2013-03-23 15:45:00,
2013-03-23 11:50:00,44.2,43.1,29.99,SSW,198,5.0,6.0,96,0.10,,,0.39,Wunderground v.1.15,2013-03-23 15:50:00,
2013-03-23 11:55:00,44.2,43.1,29.97,South,175,6.0,8.0,96,0.10,,,0.40,Wunderground v.1.15,2013-03-23 15:55:00,
2013-03-23 12:00:00,44.2,43.1,29.97,SSW,197,7.0,8.0,96,0.12,,,0.41,Wunderground v.1.15,2013-03-23 16:00:00,
2013-03-23 12:05:00,44.3,43.2,29.97,SSW,194,9.0,10.0,96,0.10,,,0.42,Wunderground v.1.15,2013-03-23 16:05:00,
2013-03-23 12:10:00,44.5,43.4,29.94,SSW,192,11.0,18.0,96,0.13,,,0.43,Wunderground v.1.15,2013-03-23 16:10:00,
2013-03-23 12:15:00,44.6,43.5,29.92,South,181,10.0,21.0,96,0.10,,,0.44,Wunderground v.1.15,2013-03-23 16:15:00,
2013-03-23 12:20:00,44.7,43.6,29.90,South,179,9.0,21.0,96,0.13,,,0.45,Wunderground v.1.15,2013-03-23 16:20:00,
2013-03-23 12:25:00,45.0,43.9,29.90,South,182,5.0,14.0,96,0.10,,,0.46,Wunderground v.1.15,2013-03-23 16:25:00,
2013-03-23 12:30:00,45.2,44.1,29.90,South,174,15.0,15.0,96,0.12,,,0.47,Wunderground v.1.15,2013-03-23 16:30:00,
2013-03-23 12:35:00,45.6,44.5,29.90,SE,142,4.0,9.0,96,0.10,,,0.48,Wunderground v.1.15,2013-03-23 16:35:00,
2013-03-23 12:40:00,46.2,45.4,29.90,South,177,9.0,11.0,97,0.11,,,0.49,Wunderground v.1.15,2013-03-23 16:40:00,
2013-03-23 12:45:00,46.7,45.9,29.90,SSE,162,5.0,9.0,97,0.11,,,0.49,Wunderground v.1.15,2013-03-23 16:45:00,
2013-03-23 12:50:00,47.1,46.3,29.91,SSE,168,0.0,9.0,97,0.09,,,0.50,Wunderground v.1.15,2013-03-23 16:50:00,
2013-03-23 12:55:00,47.8,47.0,29.93,SSE,167,0.0,5.0,97,0.11,,,0.51,Wunderground v.1.15,2013-03-23 16:55:00,
2013-03-23 13:00:00,47.8,47.0,29.94,ENE,71,3.0,6.0,97,0.09,,,0.52,Wunderground v.1.15,2013-03-23 17:00:00,
2013-03-23 13:05:00,48.1,47.3,29.94,NE,37,2.0,5.0,97,0.11,,,0.53,Wunderground v.1.15,2013-03-23 17:05:00,
2013-03-23 13:10:00,48.2,47.4,29.94,ENE,67,4.0,5.0,97,0.09,,,0.53,Wunderground v.1.15,2013-03-23 17:10:00,
2013-03-23 13:15:00,48.2,47.1,29.94,ENE,61,2.0,6.0,96,0.09,,,0.54,Wunderground v.1.15,2013-03-23 17:15:00,
2013-03-23 13:20:00,48.4,47.3,29.94,NE,48,3.0,6.0,96,0.10,,,0.55,Wunderground v.1.15,2013-03-23 17:20:00,
2013-03-23 13:25:00,48.4,47.3,29.93,ENE,71,5.0,6.0,96,0.08,,,0.56,Wunderground v.1.15,2013-03-23 17:25:00,
2013-03-23 13:30:00,48.3,46.9,29.94,ENE,71,3.0,6.0,95,0.08,,,0.56,Wunderground v.1.15,2013-03-23 17:30:00,
2013-03-23 13:35:00,48.2,47.9,29.94,ENE,74,5.0,5.0,99,0.08,,,0.57,Wunderground v.1.15,2013-03-23 17:35:00,
2013-03-23 13:40:00,47.9,46.5,29.94,ENE,74,3.0,5.0,95,0.07,,,0.57,Wunderground v.1.15,2013-03-23 17:40:00,
2013-03-23 13:45:00,48.0,46.6,29.93,NE,51,2.0,5.0,95,0.07,,,0.58,Wunderground v.1.15,2013-03-23 17:45:00,
2013-03-23 13:50:00,48.2,46.8,29.93,ENE,62,4.0,5.0,95,0.08,,,0.59,Wunderground v.1.15,2013-03-23 17:50:00,
2013-03-23 13:55:00,48.0,46.6,29.93,ENE,69,4.0,5.0,95,0.08,,,0.59,Wunderground v.1.15,2013-03-23 17:55:00,
2013-03-23 14:00:00,47.7,46.1,29.93,ENE,59,5.0,6.0,94,0.06,,,0.60,Wunderground v.1.15,2013-03-23 18:00:00,
2013-03-23 14:05:00,47.5,45.9,29.93,ENE,66,4.0,5.0,94,0.06,,,0.60,Wunderground v.1.15,2013-03-23 18:05:00,
2013-03-23 14:10:00,47.6,46.2,29.93,ENE,61,3.0,5.0,95,0.06,,,0.61,Wunderground v.1.15,2013-03-23 18:10:00,
2013-03-23 14:15:00,47.7,46.3,29.93,ENE,73,4.0,4.0,95,0.06,,,0.61,Wunderground v.1.15,2013-03-23 18:15:00,
2013-03-23 14:20:00,47.8,46.4,29.93,ENE,57,2.0,5.0,95,0.05,,,0.61,Wunderground v.1.15,2013-03-23 18:20:00,
2013-03-23 14:25:00,48.0,46.6,29.93,ENE,57,0.0,4.0,95,0.04,,,0.62,Wunderground v.1.15,2013-03-23 18:25:00,
2013-03-23 14:31:00,48.2,47.9,29.92,ENE,57,1.0,4.0,99,0.04,,,0.62,Wunderground v.1.15,2013-03-23 18:31:00,
2013-03-23 14:36:00,48.3,46.9,29.92,ENE,57,2.0,2.0,95,0.05,,,0.63,Wunderground v.1.15,2013-03-23 18:36:00,
2013-03-23 14:41:00,48.4,46.8,29.92,ENE,57,3.0,3.0,94,0.05,,,0.63,Wunderground v.1.15,2013-03-23 18:41:00,
2013-03-23 14:46:00,48.4,46.8,29.92,ENE,57,1.0,4.0,94,0.05,,,0.63,Wunderground v.1.15,2013-03-23 18:46:00,
2013-03-23 14:51:00,48.6,47.0,29.92,ENE,57,3.0,4.0,94,0.04,,,0.64,Wunderground v.1.15,2013-03-23 18:51:00,
2013-03-23 14:56:00,48.6,47.0,29.92,ENE,57,3.0,4.0,94,0.04,,,0.64,Wunderground v.1.15,2013-03-23 18:56:00,
2013-03-23 15:01:00,48.6,46.7,29.92,ENE,76,5.0,6.0,93,0.04,,,0.64,Wunderground v.1.15,2013-03-23 19:01:00,
2013-03-23 15:06:00,48.6,47.0,29.92,ENE,77,3.0,5.0,94,0.04,,,0.65,Wunderground v.1.15,2013-03-23 19:06:00,
2013-03-23 15:11:00,48.7,46.8,29.91,ENE,59,4.0,5.0,93,0.04,,,0.65,Wunderground v.1.15,2013-03-23 19:11:00,
2013-03-23 15:16:00,48.6,46.7,29.91,NE,49,3.0,7.0,93,0.04,,,0.65,Wunderground v.1.15,2013-03-23 19:16:00,
2013-03-23 15:21:00,48.6,46.7,29.91,ENE,68,4.0,7.0,93,0.00,,,0.65,Wunderground v.1.15,2013-03-23 19:21:00,
2013-03-23 15:27:00,48.6,46.7,29.90,ENE,63,5.0,5.0,93,0.00,,,0.65,Wunderground v.1.15,2013-03-23 19:27:00,
2013-03-23 15:32:00,48.6,47.0,29.90,ENE,65,5.0,5.0,94,0.00,,,0.65,Wunderground v.1.15,2013-03-23 19:32:00,
2013-03-23 15:37:00,48.7,47.1,29.90,East,97,2.0,5.0,94,0.00,,,0.65,Wunderground v.1.15,2013-03-23 19:37:00,
2013-03-23 15:42:00,48.7,47.1,29.90,ENE,57,3.0,5.0,94,0.00,,,0.65,Wunderground v.1.15,2013-03-23 19:42:00,
2013-03-23 15:47:00,48.6,46.7,29.89,NE,56,6.0,6.0,93,0.00,,,0.65,Wunderground v.1.15,2013-03-23 19:47:00,
2013-03-23 15:52:00,48.6,46.7,29.89,ENE,71,4.0,6.0,93,0.00,,,0.65,Wunderground v.1.15,2013-03-23 19:52:00,
2013-03-23 15:57:00,48.5,46.6,29.89,East,82,4.0,8.0,93,0.00,,,0.65,Wunderground v.1.15,2013-03-23 19:57:00,
2013-03-23 16:02:00,48.6,46.7,29.89,ENE,71,4.0,8.0,93,0.00,,,0.65,Wunderground v.1.15,2013-03-23 20:02:00,
2013-03-23 16:07:00,48.7,46.8,29.88,ENE,71,3.0,6.0,93,0.00,,,0.65,Wunderground v.1.15,2013-03-23 20:07:00,
2013-03-23 16:12:00,48.7,46.8,29.88,ENE,65,3.0,4.0,93,0.00,,,0.65,Wunderground v.1.15,2013-03-23 20:12:00,
2013-03-23 16:17:00,48.8,46.9,29.87,ENE,78,3.0,5.0,93,0.00,,,0.65,Wunderground v.1.15,2013-03-23 20:17:00,
2013-03-23 16:22:00,48.9,47.0,29.88,ENE,67,3.0,7.0,93,0.00,,,0.65,Wunderground v.1.15,2013-03-23 20:22:00,
2013-03-23 16:27:00,49.0,47.1,29.88,ENE,61,3.0,4.0,93,0.00,,,0.65,Wunderground v.1.15,2013-03-23 20:27:00,
2013-03-23 16:32:00,48.9,47.0,29.88,ENE,61,2.0,3.0,93,0.00,,,0.65,Wunderground v.1.15,2013-03-23 20:32:00,
2013-03-23 16:37:00,48.9,47.0,29.88,ENE,61,2.0,4.0,93,0.00,,,0.65,Wunderground v.1.15,2013-03-23 20:37:00,
2013-03-23 16:42:00,48.8,46.9,29.88,East,86,0.0,2.0,93,0.00,,,0.65,Wunderground v.1.15,2013-03-23 20:42:00,
2013-03-23 16:47:00,48.9,47.0,29.88,East,93,2.0,5.0,93,0.00,,,0.65,Wunderground v.1.15,2013-03-23 20:47:00,
2013-03-23 16:52:00,48.8,46.9,29.88,East,86,2.0,2.0,93,0.00,,,0.65,Wunderground v.1.15,2013-03-23 20:52:00,
2013-03-23 16:57:00,48.9,47.0,29.88,East,93,2.0,5.0,93,0.00,,,0.65,Wunderground v.1.15,2013-03-23 20:57:00,
2013-03-23 17:02:00,48.9,47.0,29.88,ENE,65,3.0,4.0,93,0.00,,,0.65,Wunderground v.1.15,2013-03-23 21:02:00,
2013-03-23 17:07:00,48.9,47.0,29.87,ENE,66,5.0,6.0,93,0.00,,,0.65,Wunderground v.1.15,2013-03-23 21:07:00,
2013-03-23 17:12:00,49.0,47.1,29.87,NE,48,5.0,5.0,93,0.00,,,0.65,Wunderground v.1.15,2013-03-23 21:12:00,
2013-03-23 17:17:00,49.1,47.2,29.87,ENE,59,0.0,5.0,93,0.00,,,0.65,Wunderground v.1.15,2013-03-23 21:17:00,
2013-03-23 17:22:00,49.2,47.3,29.88,ENE,67,0.0,1.0,93,0.00,,,0.65,Wunderground v.1.15,2013-03-23 21:22:00,
2013-03-23 17:27:00,49.3,47.4,29.87,ENE,59,1.0,5.0,93,0.00,,,0.65,Wunderground v.1.15,2013-03-23 21:27:00,
2013-03-23 17:32:00,49.4,47.5,29.87,ENE,67,0.0,2.0,93,0.00,,,0.65,Wunderground v.1.15,2013-03-23 21:32:00,
2013-03-23 17:38:00,49.5,47.6,29.87,ENE,67,0.0,5.0,93,0.00,,,0.65,Wunderground v.1.15,2013-03-23 21:38:00,
2013-03-23 17:43:00,49.5,47.3,29.87,ENE,67,4.0,4.0,92,0.00,,,0.65,Wunderground v.1.15,2013-03-23 21:43:00,
2013-03-23 17:48:00,49.4,47.5,29.87,ENE,67,0.0,5.0,93,0.00,,,0.65,Wunderground v.1.15,2013-03-23 21:48:00,
2013-03-23 17:53:00,49.5,47.6,29.88,ENE,67,0.0,1.0,93,0.00,,,0.65,Wunderground v.1.15,2013-03-23 21:53:00,
2013-03-23 17:58:00,49.5,47.6,29.87,ENE,67,0.0,1.0,93,0.00,,,0.65,Wunderground v.1.15,2013-03-23 21:58:00,
2013-03-23 18:03:00,49.5,47.6,29.87,ENE,67,0.0,0.0,93,0.00,,,0.65,Wunderground v.1.15,2013-03-23 22:03:00,
2013-03-23 18:08:00,49.7,47.8,29.87,ENE,67,0.0,0.0,93,0.00,,,0.65,Wunderground v.1.15,2013-03-23 22:08:00,
2013-03-23 18:13:00,49.8,47.9,29.87,ENE,67,0.0,0.0,93,0.00,,,0.65,Wunderground v.1.15,2013-03-23 22:13:00,
2013-03-23 18:18:00,49.9,48.0,29.87,ENE,67,0.0,0.0,93,0.00,,,0.65,Wunderground v.1.15,2013-03-23 22:18:00,
2013-03-23 18:23:00,50.1,48.2,29.87,South,184,7.0,7.0,93,0.00,,,0.65,Wunderground v.1.15,2013-03-23 22:23:00,
2013-03-23 18:28:00,50.2,48.0,29.87,South,169,0.0,7.0,92,0.00,,,0.65,Wunderground v.1.15,2013-03-23 22:28:00,
2013-03-23 18:33:00,50.4,48.2,29.87,South,169,0.0,1.0,92,0.00,,,0.65,Wunderground v.1.15,2013-03-23 22:33:00,
2013-03-23 18:38:00,50.4,48.2,29.88,South,169,0.0,2.0,92,0.00,,,0.65,Wunderground v.1.15,2013-03-23 22:38:00,
2013-03-23 18:43:00,50.4,48.2,29.87,South,169,0.0,0.0,92,0.00,,,0.65,Wunderground v.1.15,2013-03-23 22:43:00,
2013-03-23 18:48:00,50.4,48.2,29.88,South,169,0.0,0.0,92,0.00,,,0.65,Wunderground v.1.15,2013-03-23 22:48:00,
2013-03-23 18:53:00,50.4,47.9,29.88,South,169,0.0,0.0,91,0.00,,,0.65,Wunderground v.1.15,2013-03-23 22:53:00,
2013-03-23 18:58:00,50.5,48.3,29.89,South,169,0.0,0.0,92,0.00,,,0.65,Wunderground v.1.15,2013-03-23 22:58:00,
2013-03-23 19:03:00,50.4,48.2,29.90,South,169,0.0,4.0,92,0.00,,,0.65,Wunderground v.1.15,2013-03-23 23:03:00,
2013-03-23 19:08:00,50.4,48.2,29.89,South,169,0.0,4.0,92,0.00,,,0.65,Wunderground v.1.15,2013-03-23 23:08:00,
2013-03-23 19:13:00,50.4,47.9,29.89,ESE,109,0.0,0.0,91,0.00,,,0.65,Wunderground v.1.15,2013-03-23 23:13:00,
2013-03-23 19:18:00,50.2,48.0,29.89,East,98,1.0,4.0,92,0.00,,,0.65,Wunderground v.1.15,2013-03-23 23:18:00,
2013-03-23 19:23:00,50.1,47.9,29.89,East,98,0.0,0.0,92,0.00,,,0.65,Wunderground v.1.15,2013-03-23 23:23:00,
2013-03-23 19:28:00,50.1,47.9,29.89,East,98,0.0,0.0,92,0.00,,,0.65,Wunderground v.1.15,2013-03-23 23:28:00,
2013-03-23 19:33:00,50.0,47.8,29.88,East,98,0.0,0.0,92,0.00,,,0.65,Wunderground v.1.15,2013-03-23 23:33:00,
2013-03-23 19:38:00,49.9,47.7,29.88,East,98,0.0,2.0,92,0.00,,,0.65,Wunderground v.1.15,2013-03-23 23:38:00,
2013-03-23 19:43:00,49.8,47.9,29.88,East,83,1.0,4.0,93,0.00,,,0.65,Wunderground v.1.15,2013-03-23 23:43:00,
2013-03-23 19:48:00,49.7,47.8,29.88,East,84,0.0,4.0,93,0.00,,,0.65,Wunderground v.1.15,2013-03-23 23:48:00,
2013-03-23 19:53:00,49.7,47.8,29.89,East,84,0.0,1.0,93,0.00,,,0.65,Wunderground v.1.15,2013-03-23 23:53:00,
2013-03-23 19:58:00,49.7,47.8,29.90,East,84,0.0,1.0,93,0.00,,,0.65,Wunderground v.1.15,2013-03-23 23:58:00,
2013-03-23 20:03:00,49.7,47.8,29.90,East,84,0.0,0.0,93,0.00,,,0.65,Wunderground v.1.15,2013-03-24 00:03:00,
2013-03-23 20:08:00,49.6,47.4,29.90,East,84,0.0,0.0,92,0.00,,,0.65,Wunderground v.1.15,2013-03-24 00:08:00,
2013-03-23 20:13:00,49.6,47.7,29.90,East,84,0.0,0.0,93,0.00,,,0.65,Wunderground v.1.15,2013-03-24 00:13:00,
2013-03-23 20:18:00,49.5,47.3,29.90,ESE,119,0.0,6.0,92,0.00,,,0.65,Wunderground v.1.15,2013-03-24 00:18:00,
2013-03-23 20:23:00,49.5,47.3,29.90,ESE,121,0.0,0.0,92,0.00,,,0.65,Wunderground v.1.15,2013-03-24 00:23:00,
2013-03-23 20:28:00,49.4,47.2,29.89,ESE,105,0.0,0.0,92,0.00,,,0.65,Wunderground v.1.15,2013-03-24 00:28:00,
2013-03-23 20:33:00,49.3,47.1,29.89,ENE,71,0.0,0.0,92,0.00,,,0.65,Wunderground v.1.15,2013-03-24 00:33:00,
2013-03-23 20:39:00,49.2,47.3,29.89,ENE,72,0.0,0.0,93,0.00,,,0.65,Wunderground v.1.15,2013-03-24 00:39:00,
2013-03-23 20:44:00,49.2,47.3,29.89,ENE,72,0.0,0.0,93,0.00,,,0.65,Wunderground v.1.15,2013-03-24 00:44:00,
2013-03-23 20:49:00,49.1,47.2,29.88,East,79,0.0,0.0,93,0.00,,,0.65,Wunderground v.1.15,2013-03-24 00:49:00,
2013-03-23 20:54:00,49.1,47.2,29.88,East,79,0.0,0.0,93,0.00,,,0.65,Wunderground v.1.15,2013-03-24 00:54:00,
2013-03-23 20:59:00,49.1,47.2,29.88,East,79,0.0,2.0,93,0.00,,,0.65,Wunderground v.1.15,2013-03-24 00:59:00,
2013-03-23 21:04:00,49.1,47.2,29.89,SE,124,0.0,0.0,93,0.00,,,0.65,Wunderground v.1.15,2013-03-24 01:04:00,
2013-03-23 21:09:00,49.1,47.2,29.88,SSE,153,0.0,5.0,93,0.00,,,0.65,Wunderground v.1.15,2013-03-24 01:09:00,
2013-03-23 21:14:00,49.1,47.2,29.88,ENE,62,0.0,0.0,93,0.00,,,0.65,Wunderground v.1.15,2013-03-24 01:14:00,
2013-03-23 21:19:00,49.0,47.1,29.88,South,177,4.0,6.0,93,0.00,,,0.65,Wunderground v.1.15,2013-03-24 01:19:00,
2013-03-23 21:24:00,49.0,47.1,29.89,South,182,13.0,13.0,93,0.00,,,0.65,Wunderground v.1.15,2013-03-24 01:24:00,
2013-03-23 21:29:00,48.9,47.0,29.88,South,171,0.0,13.0,93,0.00,,,0.65,Wunderground v.1.15,2013-03-24 01:29:00,
2013-03-23 21:34:00,48.8,46.9,29.88,ESE,121,0.0,3.0,93,0.00,,,0.65,Wunderground v.1.15,2013-03-24 01:34:00,
2013-03-23 21:39:00,48.8,46.9,29.87,ESE,121,0.0,4.0,93,0.00,,,0.65,Wunderground v.1.15,2013-03-24 01:39:00,
2013-03-23 21:44:00,48.8,46.9,29.86,SE,136,0.0,4.0,93,0.00,,,0.65,Wunderground v.1.15,2013-03-24 01:44:00,
2013-03-23 21:49:00,48.8,46.9,29.87,SSE,161,0.0,5.0,93,0.00,,,0.65,Wunderground v.1.15,2013-03-24 01:49:00,
2013-03-23 21:54:00,48.7,46.8,29.87,SE,138,0.0,2.0,93,0.00,,,0.65,Wunderground v.1.15,2013-03-24 01:54:00,
2013-03-23 21:59:00,48.7,46.8,29.87,SE,141,0.0,2.0,93,0.00,,,0.65,Wunderground v.1.15,2013-03-24 01:59:00,
2013-03-23 22:04:00,48.6,46.7,29.87,ESE,113,0.0,2.0,93,0.00,,,0.65,Wunderground v.1.15,2013-03-24 02:04:00,
2013-03-23 22:09:00,48.7,47.1,29.86,ESE,116,0.0,2.0,94,0.00,,,0.65,Wunderground v.1.15,2013-03-24 02:09:00,
2013-03-23 22:14:00,48.6,47.0,29.86,SE,124,0.0,0.0,94,0.00,,,0.65,Wunderground v.1.15,2013-03-24 02:14:00,
2013-03-23 22:19:00,48.6,47.0,29.87,SSW,194,3.0,4.0,94,0.00,,,0.65,Wunderground v.1.15,2013-03-24 02:19:00,
2013-03-23 22:24:00,48.7,47.1,29.87,South,188,0.0,1.0,94,0.00,,,0.65,Wunderground v.1.15,2013-03-24 02:24:00,
2013-03-23 22:29:00,48.7,47.1,29.87,South,188,0.0,1.0,94,0.00,,,0.65,Wunderground v.1.15,2013-03-24 02:29:00,
2013-03-23 22:34:00,48.7,47.1,29.87,South,188,3.0,5.0,94,0.00,,,0.65,Wunderground v.1.15,2013-03-24 02:34:00,
2013-03-23 22:39:00,48.7,47.1,29.87,South,188,0.0,5.0,94,0.00,,,0.65,Wunderground v.1.15,2013-03-24 02:39:00,
2013-03-23 22:44:00,48.7,47.1,29.87,South,180,5.0,5.0,94,0.00,,,0.65,Wunderground v.1.15,2013-03-24 02:44:00,
2013-03-23 22:50:00,48.7,47.1,29.88,SSE,168,0.0,5.0,94,0.00,,,0.65,Wunderground v.1.15,2013-03-24 02:50:00,
2013-03-23 22:55:00,48.7,47.1,29.88,SSE,168,0.0,4.0,94,0.00,,,0.65,Wunderground v.1.15,2013-03-24 02:55:00,
2013-03-23 23:00:00,48.8,47.2,29.87,SSE,168,0.0,4.0,94,0.00,,,0.65,Wunderground v.1.15,2013-03-24 03:00:00,
2013-03-23 23:05:00,48.7,47.1,29.85,SSE,168,0.0,0.0,94,0.00,,,0.65,Wunderground v.1.15,2013-03-24 03:05:00,
2013-03-23 23:10:00,48.7,47.1,29.86,East,84,0.0,1.0,94,0.00,,,0.65,Wunderground v.1.15,2013-03-24 03:10:00,
2013-03-23 23:15:00,48.7,47.1,29.86,South,169,0.0,6.0,94,0.00,,,0.65,Wunderground v.1.15,2013-03-24 03:15:00,
2013-03-23 23:20:00,48.7,47.3,29.86,South,169,0.0,6.0,95,0.00,,,0.65,Wunderground v.1.15,2013-03-24 03:20:00,
2013-03-23 23:25:00,48.7,47.1,29.86,South,169,0.0,2.0,94,0.00,,,0.65,Wunderground v.1.15,2013-03-24 03:25:00,
2013-03-23 23:30:00,48.7,47.3,29.85,South,173,2.0,5.0,95,0.00,,,0.65,Wunderground v.1.15,2013-03-24 03:30:00,
2013-03-23 23:35:00,48.7,47.3,29.85,SSE,162,0.0,6.0,95,0.00,,,0.65,Wunderground v.1.15,2013-03-24 03:35:00,
2013-03-23 23:40:00,48.7,47.3,29.86,SSE,162,0.0,6.0,95,0.00,,,0.65,Wunderground v.1.15,2013-03-24 03:40:00,
2013-03-23 23:45:00,48.7,47.3,29.85,SSE,162,0.0,1.0,95,0.00,,,0.65,Wunderground v.1.15,2013-03-24 03:45:00,
2013-03-23 23:48:00,56.8,52.3,30.10,South,173,0.0,4.0,85,0.00,,,0.00,Wunderground v.1.15,2013-03-24 03:48:00,
2013-03-23 23:49:00,57.0,52.5,30.10,South,173,0.0,4.0,85,0.00,,,0.00,Wunderground v.1.15,2013-03-24 03:49:00,
2013-03-23 23:50:00,48.7,47.3,29.85,South,169,0.0,6.0,95,0.00,,,0.65,Wunderground v.1.15,2013-03-24 03:50:00,
2013-03-23 23:51:00,57.4,52.9,30.10,South,173,0.0,0.0,85,0.00,,,0.00,Wunderground v.1.15,2013-03-24 03:51:00,
2013-03-23 23:52:00,57.6,52.8,30.10,South,173,0.0,0.0,84,0.00,,,0.00,Wunderground v.1.15,2013-03-24 03:52:00,
2013-03-23 23:53:00,57.8,52.7,30.10,South,173,0.0,0.0,83,0.00,,,0.00,Wunderground v.1.15,2013-03-24 03:53:00,
2013-03-23 23:54:00,57.9,52.8,30.10,South,173,0.0,0.0,83,0.00,,,0.00,Wunderground v.1.15,2013-03-24 03:54:00,
2013-03-23 23:55:00,48.7,47.3,29.85,South,169,0.0,0.0,95,0.00,,,0.65,Wunderground v.1.15,2013-03-24 03:55:00,
2013-03-23 23:56:00,58.1,52.6,30.10,South,173,0.0,0.0,82,0.00,,,0.00,Wunderground v.1.15,2013-03-24 03:56:00,